Location: Olsztyn
(53.7767°N, 20.4765°E)
Time: 20:39:01
(UTC+02:00)

Envisat - Pass Details

Date: 24 February 2024
Orbit: 762 x 764 km, 98.3° (Epoch: 20 April)

Event Time Altitude Azimuth Distance (km) Brightness Sun altitude
Rises 01:45:20 0° 26° (NNE) 3,245 7.1 -40.4°
Reaches altitude 10° 01:48:30 10° 46° (NE) 2,313 6.1 -40.1°
Enters shadow 01:50:37 16° 70° (ENE) 1,937 5.5 -39.9°
